This is the latest recevied weather packets stored in our database for station/object F4FTJ-13. If no packets are shown the sender has not sent any weather packets the latest 10 day(s).
| Time | Temp. | Humidity | Pressure | Rain* | Wind** | Luminosity | Snow |
|---|---|---|---|---|---|---|---|
| 1777482608 | 23.33° C | 52% | 1011.7 hPa | 0 mm | - | - | - |
| 1777482008 | 23.89° C | 53% | 1011.8 hPa | 0 mm | - | - | - |
| 1777481707 | 23.89° C | 53% | 1011.8 hPa | 0 mm | - | - | - |
| 1777479307 | 24.44° C | 51% | 1011.9 hPa | 0 mm | - | - | - |
| 1777478408 | 24.44° C | 51% | 1011.9 hPa | 0 mm | - | - | - |
| 1777478108 | 24.44° C | 52% | 1011.9 hPa | 0 mm | - | - | - |
| 1777476607 | 24.44° C | 51% | 1011.9 hPa | 0 mm | - | - | - |
| 1777471508 | 24.44° C | 51% | 1012.4 hPa | 0 mm | - | - | - |
| 1777470607 | 24.44° C | 51% | 1012.2 hPa | 0 mm | - | - | - |
| 1777469407 | 23.89° C | 51% | 1012.4 hPa | 0 mm | - | - | - |
| 1777469108 | 24.44° C | 50% | 1012.4 hPa | 0 mm | - | - | - |
| 1777468808 | 24.44° C | 50% | 1012.2 hPa | 0 mm | - | - | - |
| 1777468208 | 24.44° C | 52% | 1012.1 hPa | 0 mm | - | - | - |
| 1777467008 | 23.33° C | 53% | 1012.2 hPa | 0 mm | - | - | - |
| 1777465807 | 23.89° C | 53% | 1012.5 hPa | 0 mm | - | - | - |
| 1777464908 | 24.44° C | 52% | 1012.6 hPa | 0 mm | - | - | - |
| 1777464608 | 23.89° C | 53% | 1012.5 hPa | 0 mm | - | - | - |
| 1777464307 | 23.89° C | 54% | 1012.5 hPa | 0 mm | - | - | - |
| 1777464008 | 24.44° C | 52% | 1012.6 hPa | 0 mm | - | - | - |
| 1777463707 | 24.44° C | 55% | 1012.8 hPa | 0 mm | - | - | - |
| 1777462808 | 23.33° C | 54% | 1012.4 hPa | 0 mm | - | - | - |
* Rain latest hour (hover to see other rain measurements)
** Current wind speed in m/s (hover to see current wind gust speed)